EHI
0 0 0 0 0 0 0 0 0 0 0 0 0 0 0 0 0 0 0 0 0 0 0 0 0 0 0 0 0 0 0 0 0 0 0 0 0 0 0 0 0 0 0 0
0 0 0 0 0 0 0 0 0 0 0 0 0 0 0 0 0 0 0 0 0 0 0 0 0 0 0 0 0 0 0 0 0 0 0 0 0 0 0 0 0 0 0 0
0 0 0 0 0 0 0 0 0 0 0 0 0 0 0 0 0 0 0 0 0 0 0 0 0 0 0 0 0 0 0 0 0 0 0 0 0 0 0 0 0 0 0 0
0 0 0 0 0 0 0 0 0 0 0 0 0 0 0 0 0 0 0 0 0 0 0 0 0 0 0 0 0 0 0 0 0 0 0 0 0 0 0 0 0 0 0 0
0 0 0 0 0 0 0 0 0 0 0 0 0 0 0 0 0 0 0 0 0 0 0 0 0 0 0 0 0 0 0 0 0 0 0 0 0 0 0 0 0 0 0 0
0 0 0 0 0 0 0 0 0 0 0 0 0 0 0 0 0 0 0 0 0 0 0 0 0 0 0 0 0 0 0 0 0 0 0 0 0 0 0 0 0 0 0 0
0 0 0 0 0 0 0 0 0 0 0 0 0 0 0 0 0 0 0 0 0 0 0 0 0 0 0 0 0 0 0 0 0 0 0 0 0 0 0 0 0 0 0 0
0 0 0 0 0 0 0 0 0 0 0 0 0 0 0 0 0 0 0 0 0 0 0 0 0 0 0 0 0 0 0 0 0 0 0 0 0 0 0 0 0 0 0 0
0 0 0 0 0 0 0 0 0 0 0 0 0 0 0 0 0 0 0 0 0 0 0 0 0 0 0 0 0 0 0 0 0 0 0 0 0 0 0 0 0 0 0 0
0 0 0 0 0 0 0 0 0 0 0 0 0 0 0 0 0 0 0 0 0 0 0 0 0 0 0 0 0 0 0 0 0 0 0 0 0 0 0 0 0 0 0 0
0 0 0 0 0 0 0 0 0 0 0 0 0 0 0 0 0 0 0 0 0 0 0 0 0 0 0 0 0 0 0 0 0 0 0 0 0 0 0 0 0 0 0 0
0 0 0 0 0 0 0 0 0 0 0 0 0 0 0 0 0 0 0 0 0 0 0 0 0 0 0 0 0 0 0 0 0 0 0 0 0 0 0 0 0 0 0 0
0 0 0 0 0 0 0 0 0 0 0 0 0 0 0 0 0 0 0 0 0 0 0 0 0 0 0 0 0 0 0 0 0 0 0 0 0 0 0 0 0 0 0 0
0 0 0 0 0 0 0 0 0 0 0 0 0 0 0 0 0 0 0 0 0 0 0 0 0 0 0 0 0 0 0 0 0 0 0 0 0 0 0 0 0 0 0 0
0 0 0 0 0 0 0 0 0 0 0 0 0 0 0 0 0 0 0 0 0 0 0 0 0 0 0 0 0 0 0 0 0 0 0 0 0 0 0 0 0 0 0 0
0 0 0 0 0 0 0 0 0 0 0 0 0 0 0 0 0 0 0 0 0 0 0 0 0 0 0 0 0 0 0 0 0 0 0 0 0 0 0 0 0 0 0 0
0 0 0 0 0 0 0 0 0 0 0 0 0 0 0 0 0 0 0 0 0 0 0 0 0 0 0 0 0 0 0 0 0 0 0 0 0 0 0 0 0 0 0 0
0 0 0 0 0 0 0 0 0 0 0 0 0 0 0 0 0 0 0 0 0 0 0 0 0 0 0 0 0 0 0 0 0 0 0 0 0 0 0 0 0 0 0 0
0 0 0 0 0 0 0 0 0 0 0 0 0 0 0 0 0 0 0 0 0 0 0 0 0 0 0 0 0 0 0 0 0 0 0 0 0 0 0 0 0 0 0 0
0 0 0 0 0 0 0 0 0 0 0 0 0 0 0 0 0 0 0 0 0 0 0 0 0 0 0 0 0 0 0 0 0 0 0 0 0 0 0 0 0 0 0 0
0 0 0 0 0 0 0 0 0 0 0 0 0 0 0 0 0 0 0 0 0 0 0 0 0 0 0 0 0 0 0 0 0 0 0 0 0 0 0 0 0 0 0 0
0 0 0 0 0 0 0 0 0 0 0 0 0 0 0 0 0 0 0 0 0 0 0 0 0 0 0 0 0 0 0 0 0 0 0 0 0 0 0 0 0 0 0 0
0 0 0 0 0 0 0 0 0 0 0 0 0 0 0 0 0 0 0 0 0 0 0 0 0 0 0 0 0 0 0 0 0 0 0 0 0 0 0 0 0 0 0 0
0 0 0 0 0 0 0 0 0 0 0 0 0 0 0 0 0 0 0 0 0 0 0 0 0 0 0 0 0 0 0 0 0 0 0 0 0 0 0 0 0 0 0 0
0 0 0 0 0 0 0 0 0 0 0 0 0 0 0 0 0 0 0 0 0 0 0 0 0 0 0 0 0 0 0 0 0 0 0 0 0 0 0 0 0 0 0 0
0 0 0 0 0 0 0 0 0 0 0 0 0 0 0 0 0 0 0 0 0 0 0 0 0 0 0 0 0 0 0 0 0 0 0 0 0 0 0 0 0 0 0 0
0 0 0 0 0 0 0 0 0 0 0 0 0 0 0 0 0 0 0 0 0 0 0 0 0 0 0 0 0 0 0 0 0 0 0 0 0 0 0 0 0 0 0 0
Wind_Speed
5 4 4 6 9 11 12 10 9 9 10 11 8 6 5 4 3 3 4 4 5 5 4 2 2 1 1 0 1 1 1 2 2 3 3 3 3 4 4 4 5 5 5 5
4 5 6 8 10 11 12 11 11 9 12 10 6 4 5 5 6 6 6 6 5 4 4 3 2 1 0 0 1 1 1 2 3 3 3 3 4 4 4 5 5 5 5 5
4 3 2 10 13 13 10 9 10 13 13 6 5 7 8 7 7 7 6 5 5 5 4 3 2 2 1 0 1 1 1 2 3 3 4 4 5 5 5 5 5 6 6 5
2 2 10 9 5 9 11 11 11 9 7 7 7 5 3 4 6 6 5 4 4 4 3 2 2 1 1 1 1 1 2 3 3 3 4 5 4 5 5 5 5 6 6 6
4 5 8 7 4 6 8 7 6 9 8 6 3 2 1 1 3 4 4 4 3 3 3 2 1 1 2 1 1 1 2 3 3 3 4 4 5 5 5 5 5 5 5 5
5 5 8 6 4 3 4 5 4 5 6 5 5 3 3 1 3 4 4 3 3 3 3 2 1 1 1 1 1 2 3 3 3 3 3 4 5 5 5 5 5 5 5 5
6 6 7 5 3 2 5 6 2 2 4 4 5 5 4 4 3 4 3 3 3 3 2 1 1 1 0 1 2 3 3 3 3 3 4 4 5 4 5 5 5 5 5 5
5 6 7 2 2 4 4 1 0 0 2 3 3 3 4 5 4 4 3 3 3 3 1 0 1 1 0 2 2 2 2 3 3 4 4 4 4 5 4 4 5 5 4 5
5 5 2 1 2 2 1 1 1 1 1 4 4 4 4 3 3 3 2 2 2 2 1 1 1 1 1 2 2 2 2 3 3 4 3 3 4 4 4 4 4 4 4 5
2 4 3 3 2 1 1 1 1 1 2 4 4 5 4 3 2 2 2 2 2 2 1 1 1 1 1 2 2 1 2 3 3 3 4 4 3 3 3 4 4 4 5 5
4 4 2 3 3 2 1 1 1 1 1 3 5 5 4 3 2 2 1 1 1 2 1 1 1 2 2 2 1 2 2 3 3 3 3 4 4 3 4 3 4 5 4 4
6 5 4 4 3 2 2 2 2 2 1 1 3 4 3 2 2 2 1 1 1 1 1 1 1 2 3 2 1 2 2 3 2 3 3 3 4 5 6 7 10 11 10 8
6 4 4 3 2 2 3 2 2 3 3 3 2 3 3 2 1 1 1 0 1 1 1 1 1 2 3 3 2 2 2 3 2 3 3 3 4 4 5 7 9 10 10 11
3 2 2 2 2 1 1 2 2 3 3 3 2 2 2 2 2 1 1 1 1 1 1 1 1 2 3 3 2 3 3 3 3 2 3 3 3 4 4 5 6 6 7 10
3 2 3 2 1 1 1 3 3 2 2 2 2 2 3 3 2 1 1 0 1 1 1 1 2 3 3 3 3 3 3 2 2 2 2 3 3 3 4 4 5 5 5 7
1 1 1 2 1 1 1 2 3 2 2 2 2 2 2 2 2 1 1 1 1 1 2 2 3 3 3 3 3 2 2 5 3 2 2 2 3 3 3 4 4 4 5 5
1 1 1 1 1 1 1 2 3 3 2 2 2 2 2 2 2 1 0 0 0 1 2 2 3 3 3 2 2 2 2 3 5 3 2 2 3 3 3 3 4 4 4 6
1 2 2 3 3 2 2 2 2 2 2 2 2 2 2 2 1 1 1 1 1 2 2 3 2 2 3 3 2 2 2 2 2 2 2 2 3 2 3 3 4 5 5 6
2 2 2 2 2 3 2 2 2 2 2 2 2 2 1 1 1 0 0 1 1 2 3 3 4 3 3 4 3 1 2 2 2 2 2 4 3 3 3 3 4 4 4 5
3 4 4 4 4 3 3 2 2 2 2 2 2 2 2 1 1 0 0 0 1 2 3 3 2 2 3 3 4 1 2 2 2 2 2 2 2 3 3 3 4 4 4 4
4 4 4 4 4 4 3 2 2 2 2 2 2 2 1 1 1 0 0 1 3 3 3 4 2 2 2 3 3 1 1 2 2 2 2 2 3 3 3 3 4 4 4 4
2 3 3 3 3 3 3 2 2 2 2 2 2 2 1 1 1 1 1 2 3 4 2 2 2 3 4 4 2 1 1 2 2 2 2 2 2 3 3 3 3 4 4 4
2 2 3 3 3 2 3 3 3 2 2 2 1 1 0 1 1 1 2 2 2 4 3 2 4 5 5 3 2 2 2 2 2 2 2 2 2 3 3 3 3 3 3 4
2 3 3 2 3 3 3 3 2 2 2 2 2 1 1 1 1 1 2 4 5 5 2 4 6 6 5 2 1 1 2 2 2 2 2 2 2 2 3 3 3 3 3 4
2 2 3 3 3 2 1 2 2 2 2 2 2 2 2 1 1 2 2 3 4 4 3 4 6 6 4 2 2 2 2 2 2 2 2 2 2 3 3 3 3 3 3 3
2 1 1 1 1 1 1 1 1 1 1 2 2 2 2 2 1 2 2 2 3 4 3 2 3 4 2 2 2 2 2 3 3 2 2 2 3 3 3 3 4 3 3 3
2 2 2 2 2 2 1 1 1 1 1 1 2 2 2 2 2 2 2 2 2 2 2 2 2 2 2 2 2 2 2 2 2 2 2 3 3 3 3 3 3 3 3 3
Wind_Direction
241 234 196 217 222 209 210 210 213 232 236 246 243 240 234 222 208 196 192 188 183 179 181 179 173 170 135 345 344 19 13 337 314 312 311 305 306 304 303 301 299 296 298 296
249 237 227 243 236 223 226 225 231 243 253 250 242 234 235 220 205 203 205 198 188 179 174 180 191 195 164 337 333 5 339 307 313 322 321 312 307 306 305 302 298 297 294 291
238 223 229 245 225 215 214 215 212 232 243 239 229 226 221 215 205 201 199 190 179 176 175 183 192 180 172 206 346 2 321 314 319 320 323 317 313 313 306 303 299 295 289 285
199 163 231 244 217 204 215 229 222 227 235 220 218 223 223 209 195 193 178 169 168 163 159 163 152 137 118 64 10 336 315 312 314 318 316 317 315 309 304 298 293 288 286 282
188 217 262 278 244 193 198 245 234 226 234 230 203 108 346 294 166 166 163 160 163 162 149 135 128 116 86 31 345 324 305 301 307 314 315 318 316 311 306 300 295 290 284 281
195 208 233 248 259 214 148 259 260 213 217 203 146 170 236 188 120 114 117 127 128 121 111 110 107 104 101 309 309 293 293 301 311 314 315 313 309 307 305 299 294 297 296 285
215 228 252 266 282 118 174 237 267 198 187 167 174 195 172 137 113 111 112 116 116 113 114 135 140 115 128 291 285 290 303 316 318 317 311 305 308 311 313 312 309 307 301 294
197 219 244 286 110 170 215 265 307 136 156 145 147 132 129 129 123 116 109 105 107 105 91 47 95 106 53 292 292 307 315 317 316 314 315 324 321 317 317 319 319 313 306 304
200 220 255 214 192 210 165 172 253 166 148 137 133 133 129 131 132 131 122 113 109 118 98 1 9 105 246 289 301 318 326 319 315 318 319 319 316 317 320 324 321 318 314 311
243 256 258 272 282 292 197 184 196 163 152 141 140 141 138 141 134 125 119 131 134 130 130 310 323 324 264 288 303 314 312 311 314 317 319 321 318 317 318 320 318 316 315 312
243 263 285 269 248 237 204 145 122 100 137 154 145 151 153 153 158 165 171 172 166 172 197 251 302 315 307 306 313 307 306 309 313 315 314 313 314 310 311 298 303 308 303 300
230 224 209 241 258 238 203 195 170 152 130 133 146 155 151 159 173 180 188 179 183 191 224 264 294 308 315 318 312 302 308 310 308 310 312 313 314 318 318 317 319 319 317 313
239 246 226 236 251 237 204 204 185 163 161 153 143 145 149 154 157 145 137 168 220 230 242 260 294 306 313 317 310 297 293 298 301 307 309 311 315 318 319 324 327 327 329 329
249 232 239 245 245 238 170 158 127 114 121 131 137 133 137 141 136 131 164 231 219 204 242 265 296 300 307 311 305 298 294 295 302 293 296 301 305 307 308 314 320 324 330 336
282 238 213 202 148 93 101 113 110 110 108 98 108 123 131 134 141 153 159 115 87 64 317 302 299 303 313 313 307 299 296 295 290 288 293 298 302 306 306 309 312 318 325 330
275 59 117 122 135 114 106 125 141 160 144 135 124 123 132 139 136 121 100 105 116 283 294 299 298 304 313 315 313 306 297 303 310 303 300 308 311 310 312 313 316 319 322 325
202 204 176 177 184 158 147 160 165 162 148 144 152 138 118 111 100 80 36 22 47 283 297 295 293 305 311 306 303 300 301 303 314 318 312 310 307 306 307 309 311 314 316 322
221 215 196 180 173 157 143 124 126 128 137 153 134 121 126 138 166 223 270 359 14 344 323 304 303 315 313 306 303 303 304 305 307 307 309 307 306 305 307 309 313 315 319 325
51 65 73 92 115 125 122 112 108 105 102 113 121 129 137 149 168 177 67 43 3 317 309 311 325 331 312 307 322 310 308 309 310 310 306 309 319 319 316 315 315 316 318 321
56 61 68 70 71 82 88 85 87 80 76 100 111 106 87 49 38 56 59 335 283 277 288 311 318 308 302 305 322 312 303 300 300 305 312 312 312 313 314 313 315 316 318 320
54 59 67 71 68 66 72 83 89 79 58 70 96 109 96 17 10 34 62 315 310 313 314 324 325 306 302 310 321 318 309 306 304 305 307 309 310 311 313 315 315 317 320 323
57 69 72 75 78 64 46 52 68 73 64 60 66 78 75 32 356 345 308 271 290 312 326 313 301 302 319 328 328 322 314 310 312 311 306 305 305 307 310 313 314 315 318 321
64 73 76 75 81 73 52 47 52 63 61 53 48 45 29 310 304 303 307 305 298 312 327 304 309 323 337 345 342 339 329 319 310 304 301 299 299 300 303 307 308 311 315 318
66 68 67 65 73 73 56 31 34 43 44 32 19 3 351 343 331 309 283 301 318 328 329 317 327 335 344 349 337 322 307 299 293 294 294 295 297 301 300 301 305 309 313 316
63 66 65 64 63 57 48 38 39 34 30 21 5 355 345 320 289 304 311 309 318 336 334 331 338 340 342 333 328 315 302 292 292 297 293 295 297 298 297 299 301 305 308 310
56 52 46 49 54 34 21 32 31 12 10 3 354 350 348 343 330 317 320 326 329 335 335 325 325 329 330 323 313 305 296 299 306 306 297 292 292 293 293 297 300 300 302 304
49 46 43 34 22 20 20 24 19 354 347 343 335 335 340 342 341 339 336 333 329 326 320 318 318 316 315 311 305 300 295 293 294 293 294 294 295 295 297 296 295 296 298 301